Regional Weather Roundup
Issued by NWS

Home | Current Version | Previous Version | Text Only | Print | Product List | Glossary Off
Versions: 1 2 3 4 5 6 7 8 9 10 11 12 13 14 15 16 17 18 19 20 21 22 23 24 25 26 27 28 29 30 31 32 33 34 35 36 37 38 39 40 41 42 43 44 45 46 47 48 49 50

554
ASUS44 KLIX 050010
RWRLA
LOUISIANA WEATHER ROUNDUP
NATIONAL WEATHER SERVICE NEW ORLEANS LA
600 PM CST WED MAR 04 2015

NOTE: "FAIR" INDICATES FEW OR NO CLOUDS BELOW 12,000 FEET WITH NO
      SIGNIFICANT WEATHER AND/OR OBSTRUCTIONS TO VISIBILITY.
      SKY/WX - SKY CONDITION AND SIGNIFICANT WEATHER.
      TMP - AIR TEMPERATURE.    DP   - DEWPOINT TEMPERATURE.
      RH  - RELATIVE HUMIDITY.  PRES - PRESSURE.
      HX  - HEAT INDEX.         WCI  - WIND CHILL INDEX.

*  THESE STATIONS ARE NOT NWS OR FAA STATIONS AND ARE NOT UNDER
   NWS QUALITY CONTROL.

LAZ040-048-061>063-065-066-069-050100-
SOUTHEAST LOUISIANA

CITY           SKY/WX    TMP DP  RH WIND       PRES   REMARKS
N.O. AUDUBON     N/A     74  70  87 MISG        N/A
6HR MIN TEMP:  73; 6HR MAX TEMP:  82;

N.O. INTL ARPT PTCLDY    76  67  73 S15       29.89F
6HR MIN TEMP:  76; 6HR MAX TEMP:  82;

N.O. LAKEFRONT CLEAR     77  66  68 S17       29.90S
6HR MIN TEMP:  77; 6HR MAX TEMP:  85;

SLIDELL        PTCLDY    76  69  79 S10       29.89S
6HR MIN TEMP:  76; 6HR MAX TEMP:  81; 6HR PCP: TRACE;

BATON ROUGE    MOCLDY    78  66  66 S10       29.86S
6HR MIN TEMP:  77; 6HR MAX TEMP:  84; 6HR PCP: TRACE;

BOOTHVILLE     CLEAR     73  71  93 S8        29.92F
6HR MIN TEMP:  73; 6HR MAX TEMP:  79;

BELLE CHASSE   MOCLDY    77  69  76 SW10      29.90S
6HR MIN TEMP:  77; 6HR MAX TEMP:  84;

BOGALUSA*        N/A     79  65  62 S13       29.90R
6HR MIN TEMP:  79; 6HR MAX TEMP:  84;

GALLIANO*      PTCLDY    77  71  80 S12G18    29.91S
6HR MIN TEMP:  77; 6HR MAX TEMP:  83;

NEW ROADS*     MOCLDY    76  66  72 S12       29.85F
6HR MIN TEMP:  76; 6HR MAX TEMP:  82;

GONZALES*      CLOUDY    76  69  79 S8        29.87S
6HR MIN TEMP:  76; 6HR MAX TEMP:  82;

HAMMOND*       MOCLDY    77  63  61 S9        29.89S
HOUMA*         MOCLDY    75  70  83 S9        29.90S
PORT FOURCHON* PTCLDY    75  72  88 S6        29.94S FOG

$$

LAZ041-044-053-054-050100-
SOUTHWEST LOUISIANA

CITY           SKY/WX    TMP DP  RH WIND       PRES   REMARKS
LAKE CHARLES   CLOUDY    73  70  90 S9        29.83S
6HR MIN TEMP:  73; 6HR MAX TEMP:  80; 6HR PCP: TRACE;

LAFAYETTE      CLOUDY    75  69  81 S13       29.85F
6HR MIN TEMP:  75; 6HR MAX TEMP:  80;

PATTERSON      MOCLDY    73  70  88 S10G20    29.89S
6HR MIN TEMP:  73; 6HR MAX TEMP:  81;

SALT POINT       N/A     70  68  93 VRB6      29.87S
6HR MIN TEMP:  70; 6HR MAX TEMP:  78;

NEW IBERIA     MOCLDY    75  70  84 S14       29.86F
6HR MIN TEMP:  75; 6HR MAX TEMP:  81;

CHENAULT AIRPK CLOUDY    73  70  88 S9        29.84F

$$

LAZ027-028-050100-
CENTRAL LOUISIANA

CITY           SKY/WX    TMP DP  RH WIND       PRES   REMARKS
FORT POLK      MOCLDY    75  66  73 S8        29.82R
6HR MIN TEMP:  75; 6HR MAX TEMP:  80;

ALEXANDRIA INT PTCLDY    74  66  76 S9        29.80S
6HR MIN TEMP:  73; 6HR MAX TEMP:  79; 6HR PCP:  0.05;

ALEXANDRIA     MOCLDY    77  66  68 SW7       29.82F
6HR MIN TEMP:  76; 6HR MAX TEMP:  81; 6HR PCP: TRACE;


$$

LAZ001-002-050100-
NORTHWEST LOUISIANA

CITY           SKY/WX    TMP DP  RH WIND       PRES   REMARKS
SHREVEPORT     LGT RAIN  49  46  90 NE24G35   29.92R
6HR MIN TEMP:  50; 6HR MAX TEMP:  78; 6HR PCP:  0.04;

BARKSDALE AFB  CLOUDY    49  46  90 N16G24    29.91R
6HR MIN TEMP:  49; 6HR MAX TEMP:  76; 6HR PCP: TRACE;

DTN SHREVEPORT CLOUDY    47  43  86 N16G26    29.92R
6HR MIN TEMP:  47; 6HR MAX TEMP:  73; 6HR PCP:  0.07;


$$

LAZ014-016-050100-
NORTHEAST LOUISIANA

CITY           SKY/WX    TMP DP  RH WIND       PRES   REMARKS
MONROE         CLOUDY    46  43  89 N20G29    29.94R
6HR MIN TEMP:  46; 6HR MAX TEMP:  80;

TALLULAH       MOCLDY    50  45  83 N20       29.89R
6HR MIN TEMP:  50; 6HR MAX TEMP:  82; 6HR PCP: TRACE;


$$




USA.gov is the U.S. government's official web portal to all federal, state and local government web resources and services.